[[{"header":{"parameterUnit":"m.s-1","parameterCategory":2,"la1":30.2991,"la2":30.254,"lo1":-89.0895,"lo2":-89.0444,"dy":0.0017,"dx":0.0017,"nx":28,"ny":28,"refTime":"2025-06-07T21:00:00:Z","depth":"0","parameterNumber":2,"parameterNumberName":"U-component_of_CURRENTS"},"data":[0,0,0,0,0,0,0,0,0,0,0,0,0,0,0,0,0,0,0,0,0,0,0,0,0,0,0,0,0,0,0,0,0,0,0,0,0,0,0,0,0,0,0,0,0,0,0,0,0,0,0,0,0,0,0,0,0,0,0.0583,0.0583,0,0.0565,0.0565,0.0565,0.0575,0.0576,0.0576,0.0576,0.0567,0.0566,0.0566,0,0,0,0,0,0,0,0,0,0,0,0,0,0.0631,0.063,0.0583,0.0583,0.0582,0.0565,0.0565,0.0565,0.0575,0.0576,0.0576,0.0576,0.0567,0.0566,0.0565,0,0,0,0,0,0,0,0,0,0,0,0,0,0.0613,0.063,0.0583,0.0584,0.0583,0.0565,0.0565,0.0565,0.0575,0.0576,0.0576,0.0577,0.0567,0.0566,0.0565,0.0551,0,0,0.0563,0.0562,0,0,0,0,0,0,0,0,0.0614,0.0612,0.0584,0.0584,0.0583,0.0571,0.0578,0.056,0.0575,0.0581,0.0576,0.0577,0.0567,0.0566,0.0565,0.055,0.055,0.0563,0.0562,0.0562,0.0562,0,0,0,0,0,0,0,0.0615,0.0613,0.0578,0.0583,0.0583,0.0586,0.0584,0.0575,0.0573,0.058,0.058,0.0575,0.0567,0.0566,0.0565,0.055,0.0563,0.0562,0.0562,0.0561,0.0552,0.0552,0,0,0,0,0,0,0.0612,0.0614,0.0578,0.0577,0.0598,0.0585,0.0583,0.0576,0.0573,0.0572,0.0574,0.0575,0.0567,0.0566,0.0564,0.0616,0.0562,0.0561,0.0561,0.0552,0.0552,0.0552,0,0,0,0,0,0,0.0613,0.0609,0.0579,0.0593,0.059,0.0583,0.0576,0.0575,0.0578,0.0568,0.0568,0.0577,0.0567,0.0565,0.056,0.0613,0.0561,0.056,0.0552,0.0552,0.0552,0.0674,0,0,0,0,0,0,0.0615,0.061,0.0608,0.0593,0.0588,0.0575,0.0575,0.0575,0.0572,0.0573,0.057,0.057,0.0567,0.0561,0.0559,0.061,0.0559,0.0551,0.0552,0.0552,0.0669,0.0678,0.0686,0,0,0,0,0,0.0617,0.0605,0.0608,0.0604,0.0585,0.0575,0.0574,0.0572,0.0572,0.0576,0.0571,0.057,0.0563,0.0561,0.0558,0.0611,0.0551,0.0552,0.0552,0.0666,0.0676,0.0686,0,0,0,0,0,0,0.0627,0.0604,0.0608,0.0591,0.059,0.0576,0.0574,0.0572,0.0571,0.0574,0.0567,0.0566,0.0577,0.0562,0.0559,0.0603,0.0559,0.056,0.0647,0.0656,0.0664,0.0769,0.0559,0,0,0,0,0,0.0628,0.061,0.0602,0.059,0.059,0.0585,0.0581,0.0582,0.0574,0.0575,0.057,0.0568,0.0576,0.059,0.0575,0.0602,0.0689,0.0631,0.0639,0.0647,0.0727,0.0859,0.0891,0.0554,0.0554,0.0554,0,0,0.0626,0.0612,0.0602,0.059,0.0589,0.0614,0.0584,0.058,0.0621,0.0573,0.0611,0.0582,0.0579,0.061,0.0617,0.0612,0.079,0.0648,0.0655,0.0732,0.0864,0.0898,0.0928,0.0555,0.0555,0.0555,0,0,0.0626,0.0607,0.0607,0.0612,0.0611,0.062,0.0622,0.0615,0.0634,0.0648,0.0636,0.0652,0.0635,0.068,0.0694,0.0737,0.081,0.0707,0.0867,0.0993,0.1025,0.1054,0.1238,0.1282,0.0736,0.0736,0.0736,0,0.0641,0.0646,0.0607,0.0626,0.0658,0.0631,0.0682,0.0689,0.0684,0.0741,0.0671,0.0731,0.0692,0.082,0.0828,0.0769,0.0872,0.0835,0.1015,0.1044,0.1072,0.1253,0.1301,0.0742,0.0741,0.0741,0.074,0,0.0655,0.0676,0.0677,0.071,0.0731,0.0759,0.0781,0.0811,0.0817,0.0849,0.0934,0.0891,0.0961,0.0923,0.0891,0.1071,0.1093,0.0996,0.1011,0.1116,0.1297,0.1345,0.075,0.0748,0.0746,0.0745,0,0,0.072,0.0695,0.0716,0.076,0.0793,0.0821,0.09,0.1004,0.1108,0.1088,0.1245,0.1226,0.1231,0.125,0.1212,0.1312,0.1557,0.1258,0.1261,0.1484,0.1919,0.1981,0.2039,0.15,0.1508,0.1514,0.1981,0,0.0787,0.0838,0.0814,0.0917,0.0982,0.0997,0.1089,0.1172,0.123,0.1356,0.1381,0.1468,0.1351,0.1391,0.1482,0.1523,0.1684,0.1446,0.175,0.1762,0.1839,0.2096,0.2079,0.2497,0.2027,0.2035,0.2041,0,0.0909,0.0912,0.1007,0.1086,0.1117,0.1159,0.1354,0.1425,0.1589,0.164,0.1761,0.1768,0.1937,0.1771,0.2035,0.1896,0.196,0.1983,0.1999,0.2067,0.1914,0.2306,0.2601,0.242,0.2114,0.2108,0.2103,0,0.1099,0.1111,0.1193,0.1213,0.1261,0.1325,0.1375,0.1533,0.1644,0.1846,0.1949,0.2125,0.2216,0.2332,0.2377,0.2242,0.2671,0.2471,0.2625,0.263,0.2689,0.2687,0.289,0.2723,0.2722,0.2721,0.272,0,0.1292,0.1374,0.1261,0.1323,0.1431,0.1437,0.1614,0.1703,0.1862,0.2029,0.2105,0.2271,0.2354,0.2559,0.2578,0.282,0.2859,0.2786,0.2794,0.2727,0.2722,0.2616,0.2556,0.2738,0.2734,0.2731,0.2728,0,0.1573,0.1505,0.158,0.1545,0.154,0.1633,0.1704,0.184,0.1965,0.2191,0.2265,0.2475,0.2752,0.2881,0.3109,0.31,0.3249,0.3343,0.3299,0.3294,0.3198,0.3146,0.3411,0.3381,0.3632,0.3637,0.3641,0,0.1727,0.1782,0.1728,0.1741,0.1718,0.1789,0.1863,0.1928,0.204,0.2302,0.2424,0.2747,0.2942,0.3376,0.3507,0.3743,0.3515,0.3821,0.353,0.3334,0.3281,0.3065,0.2999,0.3675,0.3679,0.3682,0.3685,0,0.1972,0.1934,0.1943,0.1952,0.1972,0.2013,0.2071,0.2144,0.2248,0.2401,0.2623,0.2794,0.324,0.3469,0.3801,0.3914,0.3689,0.3894,0.3706,0.3423,0.3199,0.312,0.3239,0.3714,0.3711,0.3709,0.3708,0.3706,0.2107,0.2136,0.2093,0.2112,0.2145,0.2165,0.2184,0.2236,0.2353,0.2491,0.2683,0.2877,0.3267,0.3726,0.3855,0.4025,0.3924,0.3876,0.3875,0.3701,0.355,0.3783,0.421,0.4209,0.4209,0.4209,0.4209,0,0.2156,0.2173,0.2236,0.22,0.2234,0.2226,0.2268,0.2254,0.2302,0.2492,0.2629,0.2948,0.3286,0.3599,0.3977,0.394,0.3765,0.3867,0.3514,0.348,0.3731,0.3593,0.3885,0.3885,0.3885,0.3886,0.3886,0.3886,0.2172,0.2185,0.2188,0.2207,0.2217,0.2193,0.2174,0.2192,0.2274,0.2404,0.2528,0.2678,0.3086,0.3604,0.3798,0.3792,0.3517,0.3486,0.3403,0.347,0.3462,0.3455,0.3301,0.3527,0.3527,0.2993,0.299,0.2987]},{"header":{"parameterUnit":"m.s-1","parameterCategory":2,"la1":30.2991,"la2":30.254,"lo1":-89.0895,"lo2":-89.0444,"dy":0.0017,"dx":0.0017,"nx":28,"ny":28,"refTime":"2025-06-07T21:00:00:Z","depth":"0","parameterNumber":3,"parameterNumberName":"V-component_of_CURRENTS"},"data":[0,0,0,0,0,0,0,0,0,0,0,0,0,0,0,0,0,0,0,0,0,0,0,0,0,0,0,0,0,0,0,0,0,0,0,0,0,0,0,0,0,0,0,0,0,0,0,0,0,0,0,0,0,0,0,0,0,0,-0.0064,-0.0065,0,-0.0099,-0.0099,-0.01,-0.0109,-0.0108,-0.0108,-0.0108,-0.0092,-0.0091,-0.0091,0,0,0,0,0,0,0,0,0,0,0,0,0,-0.005,-0.005,-0.0064,-0.0065,-0.0065,-0.0099,-0.0099,-0.01,-0.0109,-0.0108,-0.0108,-0.0107,-0.0092,-0.0091,-0.0091,0,0,0,0,0,0,0,0,0,0,0,0,0,-0.0068,-0.005,-0.0064,-0.0072,-0.0073,-0.0098,-0.0099,-0.01,-0.0109,-0.0108,-0.0108,-0.0107,-0.0092,-0.0091,-0.0091,-0.01,0,0,-0.0091,-0.0091,0,0,0,0,0,0,0,0,-0.0067,-0.0069,-0.0071,-0.0072,-0.0073,-0.0098,-0.0088,-0.0097,-0.0109,-0.0097,-0.0108,-0.0107,-0.0088,-0.0089,-0.0099,-0.0099,-0.0099,-0.0091,-0.0091,-0.0091,-0.009,0,0,0,0,0,0,0,-0.0066,-0.0068,-0.0079,-0.0071,-0.0073,-0.0089,-0.0091,-0.009,-0.0095,-0.0098,-0.0098,-0.01,-0.0089,-0.0099,-0.0098,-0.0098,-0.0091,-0.0091,-0.009,-0.009,-0.0008,-0.0006,0,0,0,0,0,0,-0.0057,-0.0066,-0.0078,-0.008,-0.0067,-0.009,-0.0092,-0.0091,-0.0096,-0.0096,-0.01,-0.01,-0.0099,-0.0098,-0.0097,-0.0003,-0.0091,-0.009,-0.009,-0.001,-0.0007,-0.0005,0,0,0,0,0,0,-0.0057,-0.0058,-0.0077,-0.0073,-0.0077,-0.009,-0.009,-0.0092,-0.0104,-0.0098,-0.0098,-0.011,-0.0099,-0.0098,-0.0083,-0.0006,-0.009,-0.009,-0.0012,-0.0009,-0.0006,0.0119,0,0,0,0,0,0,-0.0056,-0.0058,-0.0059,-0.0072,-0.0076,-0.0084,-0.009,-0.0093,-0.0105,-0.0106,-0.0106,-0.0104,-0.0099,-0.0083,-0.0083,-0.0007,-0.009,-0.0015,-0.0011,-0.0007,0.0112,0.0126,0.0138,0,0,0,0,0,-0.0056,-0.0058,-0.0059,-0.0061,-0.0076,-0.0083,-0.0087,-0.0096,-0.0106,-0.0107,-0.0101,-0.0104,-0.0057,-0.0083,-0.0083,-0.0005,-0.0017,-0.0012,-0.0007,0.0107,0.0123,0.0138,0,0,0,0,0,0,-0.0055,-0.0059,-0.0061,-0.0065,-0.0069,-0.0084,-0.0087,-0.01,-0.0101,-0.0097,-0.0099,-0.0096,-0.005,-0.0058,-0.0087,0.003,-0.0029,-0.0024,0.0058,0.0073,0.0086,0.0157,-0.009,0,0,0,0,0,-0.0055,-0.0054,-0.0061,-0.0063,-0.0063,-0.0078,-0.0086,-0.009,-0.0092,-0.0093,-0.0086,-0.0067,-0.0031,-0.0007,0.0004,0.0054,0.0044,0.011,0.0123,0.0134,0.0191,0.0192,0.0211,0.0011,0.001,0.001,0,0,-0.0054,-0.0057,-0.0056,-0.0062,-0.0067,-0.0016,-0.0081,-0.0085,-0.002,-0.0089,-0.0014,-0.0039,-0.0016,0.0052,0.0076,0.0059,0.0184,0.014,0.0149,0.0202,0.0199,0.0219,0.0236,0.0014,0.0013,0.0013,0,0,-0.0009,-0.0053,-0.0009,-0.0005,-0.0003,-0.0002,0.0,-0.0006,0.0009,0.0053,0.0042,0.0062,0.0098,0.015,0.018,0.0266,0.0234,0.0263,0.041,0.0409,0.0426,0.0441,0.0447,0.0462,0.029,0.029,0.029,0,0.0007,0.0057,-0.0001,0.0058,0.0091,0.0021,0.0106,0.0111,0.0117,0.016,0.0101,0.0181,0.017,0.0306,0.0343,0.0304,0.0288,0.0349,0.0428,0.0442,0.0455,0.0458,0.0472,0.0297,0.0296,0.0295,0.0295,0,0.0125,0.0152,0.017,0.0244,0.0264,0.0297,0.0317,0.0337,0.033,0.0354,0.043,0.0393,0.0458,0.0451,0.0432,0.0545,0.0496,0.0423,0.0391,0.0483,0.0479,0.0492,0.0306,0.0304,0.0302,0.03,0,0,0.0222,0.0254,0.0268,0.0324,0.0363,0.0395,0.0498,0.0585,0.0671,0.065,0.0769,0.0797,0.0745,0.0775,0.0728,0.0736,0.0789,0.0637,0.0634,0.0651,0.0794,0.079,0.0802,0.0713,0.0716,0.0718,0.0751,0,0.0353,0.0474,0.0478,0.0617,0.0682,0.067,0.0783,0.0844,0.0866,0.0945,0.092,0.0988,0.0882,0.0895,0.0894,0.0812,0.0831,0.0789,0.0698,0.0698,0.0688,0.082,0.0801,0.0832,0.0763,0.0765,0.0767,0,0.0523,0.0563,0.0708,0.0803,0.084,0.0922,0.1066,0.1151,0.1239,0.1256,0.1299,0.1253,0.1303,0.115,0.1115,0.1084,0.0981,0.0893,0.089,0.0867,0.072,0.073,0.0857,0.0633,0.0785,0.0784,0.0783,0,0.065,0.0751,0.086,0.0891,0.0985,0.1069,0.114,0.1251,0.1338,0.144,0.1489,0.1517,0.1518,0.1412,0.1249,0.118,0.1172,0.1039,0.0952,0.0948,0.0915,0.0905,0.0832,0.1029,0.1029,0.1029,0.1029,0,0.0819,0.0913,0.0909,0.0971,0.1108,0.1165,0.1334,0.1406,0.1526,0.1644,0.1638,0.1715,0.1574,0.1535,0.1358,0.1233,0.1262,0.1043,0.0984,0.0956,0.095,0.0736,0.0601,0.103,0.103,0.103,0.103,0,0.098,0.0981,0.1074,0.1137,0.1165,0.1262,0.1404,0.1521,0.163,0.1773,0.1809,0.1881,0.1854,0.1712,0.156,0.1388,0.1159,0.1183,0.1176,0.1118,0.081,0.0684,0.0714,0.0671,0.1108,0.1108,0.1109,0,0.1081,0.1137,0.1154,0.1178,0.1208,0.1327,0.1419,0.1552,0.1665,0.1862,0.1937,0.1999,0.2044,0.1881,0.1623,0.14,0.1208,0.1211,0.1085,0.0864,0.0678,0.067,0.0629,0.1075,0.1075,0.1075,0.1075,0,0.1231,0.1207,0.1244,0.1278,0.1341,0.1437,0.157,0.166,0.1826,0.1946,0.2105,0.2171,0.2089,0.1911,0.1661,0.1469,0.1103,0.1205,0.0974,0.0691,0.0684,0.0587,0.0974,0.1076,0.1076,0.1076,0.1076,0.1076,0.1291,0.1319,0.1322,0.1376,0.1441,0.1543,0.1637,0.1768,0.1933,0.2127,0.2188,0.2311,0.2124,0.1805,0.1532,0.1048,0.1091,0.0842,0.0723,0.0749,0.0684,0.1101,0.1127,0.1128,0.1128,0.1128,0.1128,0,0.1333,0.1374,0.1427,0.1479,0.1566,0.1592,0.1742,0.1837,0.1994,0.2177,0.2309,0.2308,0.1971,0.1626,0.1037,0.0632,0.053,0.0404,0.0336,0.0326,0.0677,0.0644,0.0569,0.0569,0.057,0.057,0.057,0.057,0.1358,0.1401,0.1433,0.1567,0.1624,0.1748,0.1816,0.1948,0.2094,0.2299,0.2406,0.2529,0.2305,0.1226,0.0459,0.0228,-0.0068,-0.0121,-0.0214,-0.0102,-0.0073,-0.0044,-0.0107,-0.0337,-0.0338,-0.0481,-0.0484,-0.0487]}],[{"header":{"parameterUnit":"m.s-1","parameterCategory":2,"la1":30.2991,"la2":30.254,"lo1":-89.0895,"lo2":-89.0444,"dy":0.0017,"dx":0.0017,"nx":28,"ny":28,"refTime":"2025-06-07T21:00:00:Z","depth":"2","parameterNumber":2,"parameterNumberName":"U-component_of_CURRENTS"},"data":[0,0,0,0,0,0,0,0,0,0,0,0,0,0,0,0,0,0,0,0,0,0,0,0,0,0,0,0,0,0,0,0,0,0,0,0,0,0,0,0,0,0,0,0,0,0,0,0,0,0,0,0,0,0,0,0,0,0,0.0232,0.0232,0,0.027,0.0271,0.0271,0.0307,0.0308,0.0309,0.0309,0.0322,0.0322,0.0322,0,0,0,0,0,0,0,0,0,0,0,0,0,0.0153,0.0155,0.0232,0.0232,0.0233,0.027,0.0271,0.0271,0.0307,0.0308,0.0309,0.0309,0.0323,0.0322,0.0322,0,0,0,0,0,0,0,0,0,0,0,0,0,0.0188,0.0155,0.0232,0.0257,0.0259,0.027,0.0271,0.0271,0.0307,0.0308,0.0309,0.031,0.0323,0.0322,0.0322,0.0302,0,0,0.0321,0.0321,0,0,0,0,0,0,0,0,0.0186,0.0191,0.0252,0.0255,0.0258,0.0286,0.0248,0.0281,0.0307,0.0287,0.0309,0.031,0.0308,0.0309,0.0313,0.0303,0.0304,0.0321,0.0321,0.0321,0.0321,0,0,0,0,0,0,0,0.0184,0.0189,0.0246,0.0253,0.0257,0.0254,0.026,0.0254,0.0291,0.0289,0.0292,0.0299,0.031,0.0313,0.0313,0.0304,0.0321,0.0321,0.0321,0.0321,0.0302,0.0302,0,0,0,0,0,0,0.0183,0.0187,0.0244,0.0247,0.0225,0.0255,0.0261,0.0275,0.0292,0.0296,0.0298,0.03,0.0313,0.0314,0.0314,0.0345,0.0321,0.0321,0.032,0.0303,0.0302,0.0302,0,0,0,0,0,0,0.0181,0.0188,0.0243,0.0218,0.0225,0.0256,0.027,0.0275,0.0301,0.0299,0.0302,0.0321,0.0314,0.0314,0.0318,0.0344,0.032,0.032,0.0303,0.0303,0.0302,0.0373,0,0,0,0,0,0,0.0179,0.0187,0.0207,0.0219,0.0227,0.0275,0.027,0.0276,0.0303,0.0307,0.0319,0.032,0.0315,0.0318,0.0318,0.0343,0.032,0.0303,0.0303,0.0302,0.0371,0.0375,0.0379,0,0,0,0,0,0.0176,0.0193,0.0208,0.0216,0.025,0.0276,0.0281,0.0303,0.0303,0.0326,0.0318,0.0321,0.0314,0.0318,0.0317,0.0343,0.0304,0.0303,0.0302,0.037,0.0375,0.0379,0,0,0,0,0,0,0.0184,0.0199,0.0216,0.0242,0.0272,0.0283,0.0305,0.0312,0.0324,0.0327,0.0318,0.0319,0.0329,0.0317,0.0321,0.0331,0.0309,0.0308,0.036,0.0364,0.0368,0.0391,0.032,0,0,0,0,0,0.0191,0.0206,0.0229,0.0259,0.0272,0.0291,0.0307,0.0321,0.0327,0.0335,0.0326,0.0318,0.0321,0.0329,0.0318,0.0328,0.0346,0.034,0.0344,0.0347,0.0362,0.0388,0.0397,0.03,0.03,0.03,0,0,0.0203,0.0217,0.0227,0.0262,0.0283,0.0304,0.0304,0.0334,0.0354,0.0331,0.0341,0.0328,0.0322,0.0332,0.0337,0.0332,0.039,0.0346,0.035,0.0363,0.0388,0.0398,0.0407,0.0299,0.0299,0.03,0,0,0.0223,0.025,0.0263,0.0282,0.0316,0.0329,0.0342,0.0352,0.0367,0.037,0.036,0.0371,0.0349,0.0369,0.0374,0.0391,0.0402,0.0372,0.0425,0.045,0.0459,0.0468,0.0538,0.0552,0.0383,0.0383,0.0383,0,0.0249,0.0268,0.0277,0.0293,0.0322,0.0341,0.0372,0.0383,0.0388,0.0399,0.038,0.038,0.0377,0.0425,0.0425,0.0408,0.0424,0.0416,0.046,0.0468,0.0475,0.0545,0.0559,0.0387,0.0386,0.0386,0.0386,0,0.0264,0.0292,0.0305,0.0334,0.0363,0.0397,0.0415,0.042,0.0425,0.0435,0.0463,0.046,0.0478,0.0466,0.0452,0.0504,0.0502,0.0459,0.0459,0.049,0.0561,0.0575,0.0391,0.039,0.0389,0.0388,0,0,0.0304,0.0316,0.0327,0.0353,0.0394,0.042,0.0442,0.0483,0.0504,0.0505,0.055,0.0557,0.057,0.0577,0.0574,0.0584,0.0661,0.0542,0.0541,0.0634,0.0747,0.0691,0.0701,0.0614,0.0615,0.0617,0.079,0,0.0334,0.0374,0.037,0.0426,0.0461,0.0471,0.0487,0.0517,0.0542,0.0571,0.0604,0.0642,0.0615,0.064,0.0655,0.0641,0.0693,0.062,0.0684,0.0688,0.0651,0.0713,0.0641,0.0782,0.0804,0.0806,0.0808,0,0.036,0.0388,0.0454,0.048,0.0494,0.0517,0.0571,0.0584,0.0624,0.0651,0.0712,0.0731,0.0799,0.0749,0.0814,0.0761,0.0778,0.0763,0.0768,0.07,0.0656,0.0744,0.0806,0.0831,0.0829,0.0827,0.0826,0,0.0412,0.0446,0.0513,0.0529,0.0559,0.0576,0.0577,0.061,0.0629,0.0724,0.0763,0.0843,0.0881,0.091,0.0905,0.0866,0.0945,0.09,0.089,0.0889,0.0833,0.0822,0.0969,0.0969,0.0968,0.0968,0.0967,0,0.0435,0.0471,0.0537,0.0574,0.0608,0.0617,0.0654,0.0663,0.0706,0.0744,0.0824,0.0873,0.0904,0.0946,0.0957,0.0975,0.1017,0.0929,0.0927,0.0856,0.0845,0.0871,0.0857,0.0974,0.0973,0.0971,0.097,0,0.0401,0.048,0.0564,0.0635,0.0641,0.0661,0.0659,0.0665,0.0731,0.0792,0.0834,0.0901,0.0962,0.1009,0.1045,0.1029,0.1059,0.106,0.0996,0.0981,0.0989,0.0977,0.1101,0.11,0.11,0.1099,0.1099,0,0.0341,0.0409,0.0587,0.0614,0.0626,0.0644,0.063,0.0684,0.0698,0.0795,0.0817,0.0905,0.0931,0.1002,0.1017,0.1089,0.1087,0.1046,0.0948,0.1016,0.1003,0.0991,0.0979,0.0939,0.0937,0.0936,0.0935,0,0.0212,0.0355,0.0392,0.0492,0.0538,0.0564,0.0558,0.0578,0.0645,0.0708,0.073,0.0756,0.087,0.0888,0.0987,0.0988,0.1025,0.1017,0.1127,0.0882,0.0867,0.0851,0.0845,0.0923,0.0924,0.0925,0.0925,0.0926,0.0086,0.0105,0.0227,0.0288,0.0358,0.04,0.0393,0.0414,0.0431,0.0531,0.0595,0.069,0.0775,0.0877,0.0897,0.0931,0.0958,0.093,0.0934,0.0939,0.0854,0.0835,0.0875,0.0875,0.0876,0.0877,0.0877,0,-0.0088,-0.0058,-0.0027,0.0089,0.0131,0.0235,0.0273,0.0291,0.03,0.0473,0.0534,0.0585,0.066,0.0793,0.0833,0.0828,0.0797,0.08,0.0784,0.0794,0.0804,0.0712,0.0696,0.0695,0.0695,0.0695,0,0,-0.0182,-0.0194,-0.0147,-0.0143,-0.0079,-0.0031,0.0008,0.009,0.0217,0.0316,0.0466,0.0643,0.0751,0.0741,0.0733,0.0746,0.0753,0.0701,0.084,0.0829,0.0839,0.0867,0.0734,0,0,0,0,0]},{"header":{"parameterUnit":"m.s-1","parameterCategory":2,"la1":30.2991,"la2":30.254,"lo1":-89.0895,"lo2":-89.0444,"dy":0.0017,"dx":0.0017,"nx":28,"ny":28,"refTime":"2025-06-07T21:00:00:Z","depth":"2","parameterNumber":3,"parameterNumberName":"V-component_of_CURRENTS"},"data":[0,0,0,0,0,0,0,0,0,0,0,0,0,0,0,0,0,0,0,0,0,0,0,0,0,0,0,0,0,0,0,0,0,0,0,0,0,0,0,0,0,0,0,0,0,0,0,0,0,0,0,0,0,0,0,0,0,0,-0.0246,-0.0246,0,-0.0255,-0.0256,-0.0256,-0.0256,-0.0256,-0.0256,-0.0255,-0.0242,-0.0242,-0.0242,0,0,0,0,0,0,0,0,0,0,0,0,0,-0.0259,-0.0259,-0.0246,-0.0246,-0.0246,-0.0255,-0.0256,-0.0256,-0.0256,-0.0256,-0.0256,-0.0255,-0.0242,-0.0242,-0.0242,0,0,0,0,0,0,0,0,0,0,0,0,0,-0.0261,-0.0259,-0.0246,-0.0245,-0.0245,-0.0255,-0.0256,-0.0256,-0.0257,-0.0256,-0.0256,-0.0255,-0.0242,-0.0242,-0.0242,-0.0251,0,0,-0.0242,-0.0242,0,0,0,0,0,0,0,0,-0.0261,-0.0261,-0.0245,-0.0245,-0.0245,-0.0252,-0.0256,-0.0253,-0.0257,-0.0255,-0.0255,-0.0255,-0.0242,-0.0242,-0.0249,-0.025,-0.025,-0.0242,-0.0242,-0.0242,-0.0242,0,0,0,0,0,0,0,-0.0261,-0.0261,-0.0252,-0.0245,-0.0245,-0.0255,-0.0255,-0.0255,-0.0252,-0.0255,-0.0254,-0.0252,-0.0242,-0.0249,-0.0248,-0.025,-0.0242,-0.0242,-0.0242,-0.0242,-0.0217,-0.0216,0,0,0,0,0,0,-0.0254,-0.0261,-0.0251,-0.0252,-0.025,-0.0255,-0.0255,-0.0252,-0.0253,-0.0252,-0.0252,-0.0252,-0.0249,-0.0248,-0.0248,-0.0218,-0.0242,-0.0242,-0.0242,-0.0218,-0.0217,-0.0216,0,0,0,0,0,0,-0.0255,-0.0253,-0.0251,-0.0255,-0.0255,-0.0255,-0.0252,-0.0253,-0.0256,-0.0251,-0.025,-0.0254,-0.0249,-0.0248,-0.0243,-0.0219,-0.0242,-0.0242,-0.0218,-0.0217,-0.0216,-0.0184,0,0,0,0,0,0,-0.0255,-0.0254,-0.025,-0.0254,-0.0254,-0.025,-0.0252,-0.0253,-0.0254,-0.0254,-0.0252,-0.0251,-0.0248,-0.0243,-0.0243,-0.0219,-0.0242,-0.0219,-0.0218,-0.0217,-0.0185,-0.0182,-0.0178,0,0,0,0,0,-0.0256,-0.0252,-0.025,-0.0248,-0.0249,-0.025,-0.0251,-0.0251,-0.0255,-0.0254,-0.0253,-0.0251,-0.0235,-0.0243,-0.0243,-0.0218,-0.022,-0.0218,-0.0217,-0.0187,-0.0182,-0.0179,0,0,0,0,0,0,-0.0257,-0.0252,-0.0249,-0.0244,-0.0243,-0.0249,-0.0246,-0.0252,-0.0253,-0.025,-0.0251,-0.025,-0.0234,-0.0236,-0.0244,-0.0208,-0.0224,-0.0222,-0.0201,-0.0197,-0.0193,-0.0209,-0.0241,0,0,0,0,0,-0.0255,-0.0248,-0.0247,-0.0242,-0.024,-0.0244,-0.0245,-0.0246,-0.0247,-0.0248,-0.0248,-0.0241,-0.0229,-0.0222,-0.0217,-0.0203,-0.023,-0.0185,-0.0181,-0.0178,-0.0191,-0.0232,-0.0234,-0.0212,-0.0212,-0.0212,0,0,-0.0252,-0.0248,-0.0244,-0.0241,-0.024,-0.023,-0.0244,-0.0241,-0.0232,-0.0245,-0.0235,-0.0234,-0.0225,-0.0205,-0.0197,-0.0202,-0.0192,-0.0177,-0.0174,-0.0189,-0.0231,-0.0233,-0.0235,-0.0211,-0.0211,-0.0211,0,0,-0.0238,-0.0241,-0.0226,-0.0227,-0.0222,-0.0222,-0.022,-0.0224,-0.0224,-0.0217,-0.0217,-0.0205,-0.0196,-0.018,-0.0171,-0.0148,-0.0177,-0.0142,-0.0132,-0.0171,-0.0173,-0.0176,-0.0188,-0.0192,-0.0135,-0.0135,-0.0135,0,-0.023,-0.0219,-0.0223,-0.0212,-0.0208,-0.0215,-0.0201,-0.0201,-0.0204,-0.0219,-0.0206,-0.02,-0.018,-0.0161,-0.0143,-0.0138,-0.0171,-0.0147,-0.0168,-0.0171,-0.0175,-0.0187,-0.0192,-0.0134,-0.0134,-0.0134,-0.0134,0,-0.02,-0.02,-0.0194,-0.0177,-0.0172,-0.0167,-0.0163,-0.0181,-0.0182,-0.0186,-0.0182,-0.0156,-0.0153,-0.0134,-0.0127,-0.0132,-0.0149,-0.0164,-0.0182,-0.0176,-0.0187,-0.0194,-0.0131,-0.0132,-0.0132,-0.0133,0,0,-0.0194,-0.017,-0.0175,-0.0173,-0.0159,-0.0158,-0.0157,-0.0169,-0.0183,-0.0175,-0.0186,-0.0142,-0.0141,-0.013,-0.0111,-0.0134,-0.0156,-0.016,-0.0163,-0.0177,-0.0241,-0.0313,-0.0326,-0.0194,-0.0196,-0.0197,-0.0231,0,-0.0177,-0.014,-0.0136,-0.0126,-0.012,-0.0142,-0.0145,-0.0162,-0.0162,-0.0178,-0.0168,-0.0146,-0.013,-0.011,-0.0133,-0.0155,-0.0177,-0.0146,-0.0241,-0.0244,-0.0314,-0.0337,-0.0276,-0.0309,-0.0237,-0.0238,-0.0238,0,-0.018,-0.0153,-0.0107,-0.013,-0.0129,-0.0118,-0.0149,-0.0153,-0.0185,-0.0178,-0.0171,-0.0163,-0.0153,-0.0146,-0.019,-0.0181,-0.0211,-0.0235,-0.0238,-0.0328,-0.0329,-0.0308,-0.0323,-0.0249,-0.0248,-0.0247,-0.0247,0,-0.0192,-0.0174,-0.0128,-0.0124,-0.0113,-0.0126,-0.0141,-0.0165,-0.0163,-0.0168,-0.0156,-0.0164,-0.0143,-0.0199,-0.0229,-0.0219,-0.0315,-0.0297,-0.0389,-0.0392,-0.0371,-0.0372,-0.0357,-0.0357,-0.0357,-0.0357,-0.0357,0,-0.0229,-0.023,-0.0131,-0.011,-0.0124,-0.0119,-0.0111,-0.0161,-0.0145,-0.0137,-0.0138,-0.0126,-0.0167,-0.0218,-0.0257,-0.0351,-0.033,-0.0405,-0.0422,-0.0355,-0.0355,-0.0332,-0.0329,-0.0358,-0.0358,-0.0358,-0.0358,0,-0.0329,-0.0246,-0.0198,-0.0124,-0.0124,-0.0142,-0.0106,-0.0097,-0.0089,-0.0076,-0.007,-0.0102,-0.0173,-0.0234,-0.0323,-0.0376,-0.0458,-0.0499,-0.041,-0.0419,-0.0494,-0.0488,-0.0591,-0.0594,-0.0597,-0.0599,-0.0601,0,-0.038,-0.0343,-0.0196,-0.017,-0.0149,-0.0131,-0.0118,-0.0088,-0.0062,-0.0064,-0.0078,-0.0132,-0.0186,-0.0348,-0.0454,-0.0561,-0.0534,-0.0574,-0.0549,-0.052,-0.0525,-0.0515,-0.0506,-0.0477,-0.0477,-0.0478,-0.0479,0,-0.0478,-0.0378,-0.0316,-0.0231,-0.0185,-0.0131,-0.0113,-0.0081,-0.0043,-0.004,-0.0083,-0.013,-0.0274,-0.0383,-0.0542,-0.0597,-0.0555,-0.0595,-0.0596,-0.0451,-0.0423,-0.0425,-0.0417,-0.0484,-0.0483,-0.0483,-0.0483,-0.0482,-0.0518,-0.0498,-0.0349,-0.0316,-0.0248,-0.017,-0.0136,-0.0086,-0.0066,-0.0065,-0.0115,-0.0146,-0.0251,-0.0452,-0.0563,-0.0645,-0.0664,-0.0637,-0.063,-0.0623,-0.0629,-0.061,-0.0704,-0.0704,-0.0705,-0.0705,-0.0706,0,-0.055,-0.0518,-0.0464,-0.0364,-0.0307,-0.0233,-0.0159,-0.0111,-0.0096,-0.0068,-0.0102,-0.0174,-0.0291,-0.0371,-0.0515,-0.0652,-0.0606,-0.0642,-0.0523,-0.052,-0.0516,-0.051,-0.0556,-0.0556,-0.0556,-0.0556,0,0,-0.0547,-0.0508,-0.0476,-0.0424,-0.0361,-0.0259,-0.0199,-0.0145,-0.0109,-0.0091,-0.0056,-0.0104,-0.0224,-0.0283,-0.0431,-0.0479,-0.0469,-0.0487,-0.0596,-0.0438,-0.0432,-0.0508,-0.0498,0,0,0,0,0]}],[{"header":{"parameterUnit":"m.s-1","parameterCategory":2,"la1":30.2991,"la2":30.254,"lo1":-89.0895,"lo2":-89.0444,"dy":0.0017,"dx":0.0017,"nx":28,"ny":28,"refTime":"2025-06-07T21:00:00:Z","depth":"4","parameterNumber":2,"parameterNumberName":"U-component_of_CURRENTS"},"data":[0,0,0,0,0,0,0,0,0,0,0,0,0,0,0,0,0,0,0,0,0,0,0,0,0,0,0,0,0,0,0,0,0,0,0,0,0,0,0,0,0,0,0,0,0,0,0,0,0,0,0,0,0,0,0,0,0,0,-0.0148,-0.0148,0,-0.0151,-0.0151,-0.0151,-0.0148,-0.0147,-0.0147,-0.0147,-0.0148,-0.0148,-0.0148,0,0,0,0,0,0,0,0,0,0,0,0,0,-0.0183,-0.0182,-0.0148,-0.0148,-0.0148,-0.0151,-0.0151,-0.0151,-0.0148,-0.0147,-0.0147,-0.0147,-0.0148,-0.0148,-0.0148,0,0,0,0,0,0,0,0,0,0,0,0,0,-0.0176,-0.0182,-0.0148,-0.0145,-0.0145,-0.0151,-0.0151,-0.0151,-0.0148,-0.0147,-0.0147,-0.0147,-0.0148,-0.0148,-0.0148,-0.0159,0,0,-0.015,-0.015,0,0,0,0,0,0,0,0,-0.0176,-0.0175,-0.0146,-0.0146,-0.0145,-0.0147,-0.0164,-0.0153,-0.0148,-0.0148,-0.0147,-0.0146,-0.0147,-0.0147,-0.0151,-0.0159,-0.0159,-0.015,-0.015,-0.015,-0.015,0,0,0,0,0,0,0,-0.0177,-0.0175,-0.0151,-0.0146,-0.0145,-0.0159,-0.0157,-0.0162,-0.0151,-0.0148,-0.0148,-0.0146,-0.0147,-0.015,-0.0151,-0.0159,-0.015,-0.015,-0.015,-0.0151,-0.0147,-0.0147,0,0,0,0,0,0,-0.0172,-0.0175,-0.0151,-0.0151,-0.0158,-0.0158,-0.0157,-0.0148,-0.0151,-0.015,-0.0146,-0.0146,-0.015,-0.015,-0.0151,-0.0146,-0.015,-0.0151,-0.0151,-0.0148,-0.0147,-0.0147,0,0,0,0,0,0,-0.0172,-0.0169,-0.015,-0.0162,-0.0161,-0.0158,-0.0149,-0.0148,-0.0148,-0.0149,-0.0149,-0.0145,-0.015,-0.015,-0.0148,-0.0146,-0.0151,-0.0151,-0.0148,-0.0148,-0.0147,-0.0147,0,0,0,0,0,0,-0.0173,-0.0169,-0.0164,-0.0162,-0.016,-0.0151,-0.0149,-0.0149,-0.0147,-0.0146,-0.0148,-0.0148,-0.0149,-0.0148,-0.0149,-0.0147,-0.0151,-0.0149,-0.0148,-0.0147,-0.0148,-0.0147,-0.0146,0,0,0,0,0,-0.0174,-0.0168,-0.0163,-0.016,-0.0151,-0.0151,-0.0152,-0.015,-0.0147,-0.0148,-0.0146,-0.0148,-0.0144,-0.0148,-0.0149,-0.0148,-0.0149,-0.0148,-0.0147,-0.0148,-0.0147,-0.0146,0,0,0,0,0,0,-0.0184,-0.0166,-0.0161,-0.0151,-0.015,-0.015,-0.0149,-0.0149,-0.0149,-0.0145,-0.0148,-0.0147,-0.0143,-0.0145,-0.0149,-0.0143,-0.0146,-0.0145,-0.0146,-0.0145,-0.0144,-0.0141,-0.0152,0,0,0,0,0,-0.0182,-0.0168,-0.0161,-0.0153,-0.015,-0.015,-0.015,-0.0148,-0.0147,-0.0146,-0.0146,-0.0144,-0.0142,-0.0143,-0.0141,-0.0143,-0.0133,-0.0141,-0.014,-0.014,-0.0137,-0.0126,-0.0125,-0.0145,-0.0145,-0.0145,0,0,-0.0185,-0.0172,-0.0166,-0.0154,-0.0151,-0.0144,-0.0149,-0.0146,-0.0139,-0.0147,-0.0137,-0.0141,-0.0141,-0.0139,-0.0137,-0.0141,-0.0126,-0.0139,-0.0138,-0.0136,-0.0125,-0.0124,-0.0122,-0.0144,-0.0144,-0.0144,0,0,-0.0179,-0.0171,-0.0155,-0.0151,-0.0142,-0.0141,-0.0139,-0.0137,-0.0134,-0.013,-0.013,-0.0131,-0.0132,-0.013,-0.0131,-0.0124,-0.012,-0.0126,-0.0124,-0.0113,-0.0112,-0.011,-0.0083,-0.0079,-0.0128,-0.0128,-0.0128,0,-0.0187,-0.0159,-0.0154,-0.0139,-0.0133,-0.0137,-0.0125,-0.0125,-0.0123,-0.012,-0.0124,-0.0126,-0.0125,-0.0125,-0.0121,-0.0123,-0.0113,-0.0129,-0.0113,-0.0111,-0.0109,-0.0082,-0.0078,-0.0128,-0.0128,-0.0128,-0.0128,0,-0.0163,-0.0146,-0.0139,-0.0115,-0.0112,-0.0105,-0.0101,-0.0099,-0.01,-0.01,-0.0101,-0.0109,-0.0109,-0.0112,-0.0116,-0.0108,-0.0102,-0.0112,-0.0117,-0.0108,-0.0079,-0.0075,-0.0128,-0.0128,-0.0128,-0.0128,0,0,-0.0176,-0.013,-0.013,-0.0109,-0.0098,-0.0092,-0.0083,-0.0077,-0.0067,-0.0079,-0.0073,-0.0081,-0.0092,-0.0092,-0.0103,-0.0101,-0.0077,-0.0104,-0.0104,-0.0079,-0.0043,-0.0008,0.0,-0.0089,-0.0089,-0.0088,-0.0023,0,-0.0162,-0.0123,-0.0108,-0.008,-0.0059,-0.006,-0.0052,-0.0048,-0.0048,-0.0045,-0.0064,-0.0057,-0.0082,-0.0082,-0.0089,-0.0081,-0.0068,-0.0093,-0.0054,-0.0052,-0.0024,0.0006,-0.0087,-0.002,-0.0019,-0.0018,-0.0018,0,-0.0148,-0.0119,-0.0091,-0.0049,-0.0042,-0.0033,-0.002,-0.0012,-0.0013,-0.0012,-0.0025,-0.0032,-0.0036,-0.0054,-0.0045,-0.0063,-0.0048,-0.0044,-0.0042,-0.0007,-0.0009,-0.0033,-0.0009,-0.001,-0.0011,-0.0011,-0.0012,0,-0.0155,-0.0108,-0.0084,-0.0073,-0.0037,-0.0028,-0.0013,-0.0007,0.0001,0.0011,0.0025,0.0005,0.0016,0.0004,0.0006,-0.0013,0.0022,0.0003,0.0051,0.0054,0.0001,-0.0002,0.0026,0.0026,0.0026,0.0026,0.0026,0,-0.0149,-0.0123,-0.0085,-0.0072,-0.0045,-0.0023,-0.0007,0.0009,0.002,0.0036,0.004,0.0058,0.0033,0.0044,0.0027,0.0057,0.0045,0.0066,0.0075,0.0001,-0.0002,0.0005,0.0001,0.0028,0.0028,0.0027,0.0027,0,-0.016,-0.0136,-0.0106,-0.0066,-0.005,-0.0038,-0.0001,0.0012,0.0038,0.006,0.0071,0.0108,0.0143,0.0121,0.0129,0.0115,0.012,0.0137,0.008,0.0082,0.0142,0.0138,0.0205,0.0207,0.0209,0.021,0.0211,0,-0.0155,-0.0146,-0.0114,-0.0103,-0.0084,-0.0056,-0.0037,0.0002,0.0018,0.0092,0.0104,0.0169,0.0187,0.0229,0.0206,0.02,0.0192,0.0203,0.0153,0.0159,0.0161,0.0155,0.0149,0.0214,0.0214,0.0214,0.0215,0,-0.0153,-0.016,-0.0142,-0.0121,-0.01,-0.0066,-0.0027,-0.001,0.004,0.0066,0.0152,0.0196,0.0253,0.0261,0.0271,0.0253,0.019,0.0218,0.0214,0.0168,0.017,0.0169,0.0161,0.022,0.0219,0.0219,0.0219,0,-0.0166,-0.0161,-0.0153,-0.0129,-0.0107,-0.0065,-0.0044,0.0009,0.0042,0.012,0.0149,0.0222,0.0257,0.0293,0.0286,0.0288,0.0282,0.0261,0.0255,0.0249,0.0231,0.0237,0.033,0,0,0,0,0,-0.0171,-0.0156,-0.0145,-0.0112,-0.0095,-0.0067,-0.003,-0.0012,0.0039,0.0098,0.0125,0.0179,0.0245,0.028,0.029,0.0297,0.0265,0.0309,0.0233,0.025,0.0244,0.0216,0,0,0,0,0,0,-0.0175,-0.0164,-0.0145,-0.0102,-0.0073,-0.0034,-0.0006,0.0027,0.006,0.0107,0.0139,0.018,0.0229,0.0237,0.0292,0.0298,0.0251,0.034,0.0341,0.0253,0.0248,0.0243,0.0212,0,0,0,0,0]},{"header":{"parameterUnit":"m.s-1","parameterCategory":2,"la1":30.2991,"la2":30.254,"lo1":-89.0895,"lo2":-89.0444,"dy":0.0017,"dx":0.0017,"nx":28,"ny":28,"refTime":"2025-06-07T21:00:00:Z","depth":"4","parameterNumber":3,"parameterNumberName":"V-component_of_CURRENTS"},"data":[0,0,0,0,0,0,0,0,0,0,0,0,0,0,0,0,0,0,0,0,0,0,0,0,0,0,0,0,0,0,0,0,0,0,0,0,0,0,0,0,0,0,0,0,0,0,0,0,0,0,0,0,0,0,0,0,0,0,-0.0038,-0.0038,0,-0.0028,-0.0028,-0.0028,-0.0037,-0.0038,-0.0038,-0.0038,-0.0082,-0.0083,-0.0084,0,0,0,0,0,0,0,0,0,0,0,0,0,-0.0046,-0.0046,-0.0038,-0.0038,-0.0038,-0.0028,-0.0028,-0.0028,-0.0037,-0.0038,-0.0038,-0.0038,-0.0082,-0.0083,-0.0084,0,0,0,0,0,0,0,0,0,0,0,0,0,-0.0041,-0.0046,-0.0038,-0.0041,-0.0041,-0.0028,-0.0028,-0.0028,-0.0037,-0.0038,-0.0038,-0.0039,-0.0082,-0.0083,-0.0084,-0.0083,0,0,-0.0088,-0.0089,0,0,0,0,0,0,0,0,-0.0041,-0.004,-0.0041,-0.0041,-0.0041,-0.0034,-0.0047,-0.0049,-0.0037,-0.0039,-0.0038,-0.0039,-0.0071,-0.0073,-0.007,-0.0085,-0.0087,-0.0088,-0.0089,-0.009,-0.009,0,0,0,0,0,0,0,-0.0041,-0.0041,-0.0035,-0.004,-0.004,-0.0036,-0.0036,-0.0047,-0.0054,-0.0039,-0.004,-0.0037,-0.0071,-0.0068,-0.0071,-0.0087,-0.0088,-0.009,-0.009,-0.0091,-0.0218,-0.022,0,0,0,0,0,0,-0.0042,-0.0041,-0.0035,-0.0035,-0.0041,-0.0035,-0.0035,-0.0036,-0.0052,-0.0055,-0.0037,-0.0038,-0.0066,-0.007,-0.0073,-0.0166,-0.009,-0.0091,-0.0092,-0.0215,-0.0219,-0.0221,0,0,0,0,0,0,-0.0042,-0.0041,-0.0036,-0.0037,-0.0036,-0.0035,-0.0036,-0.0036,-0.0037,-0.005,-0.0054,-0.0039,-0.0067,-0.0071,-0.011,-0.0164,-0.0092,-0.0093,-0.0212,-0.0216,-0.022,-0.0293,0,0,0,0,0,0,-0.0042,-0.0042,-0.0043,-0.0037,-0.0036,-0.0042,-0.0035,-0.0035,-0.0035,-0.0036,-0.0053,-0.0057,-0.0067,-0.0108,-0.0111,-0.0165,-0.0094,-0.0209,-0.0214,-0.0219,-0.0287,-0.0299,-0.0308,0,0,0,0,0,-0.0043,-0.0039,-0.0043,-0.0042,-0.0037,-0.0042,-0.0042,-0.0042,-0.0034,-0.0044,-0.0065,-0.0057,-0.0142,-0.011,-0.0113,-0.0169,-0.0207,-0.0213,-0.0218,-0.0282,-0.0296,-0.0308,0,0,0,0,0,0,-0.0044,-0.004,-0.0044,-0.004,-0.0049,-0.0044,-0.0045,-0.0042,-0.0061,-0.0066,-0.0075,-0.0082,-0.0142,-0.0142,-0.0107,-0.0223,-0.0179,-0.0186,-0.0227,-0.024,-0.025,-0.0265,-0.0095,0,0,0,0,0,-0.0045,-0.0045,-0.0045,-0.0047,-0.0048,-0.0047,-0.0046,-0.0051,-0.0063,-0.007,-0.0089,-0.0121,-0.0167,-0.0189,-0.0221,-0.0268,-0.0254,-0.0313,-0.0324,-0.0333,-0.0349,-0.0369,-0.0382,-0.024,-0.024,-0.024,0,0,-0.0048,-0.0044,-0.0046,-0.0048,-0.005,-0.0088,-0.0049,-0.0055,-0.0103,-0.0074,-0.0142,-0.0152,-0.0187,-0.0257,-0.0285,-0.0264,-0.0365,-0.034,-0.0347,-0.036,-0.0376,-0.0389,-0.0401,-0.0244,-0.0244,-0.0243,0,0,-0.0079,-0.0051,-0.008,-0.009,-0.0099,-0.0103,-0.0107,-0.0115,-0.0133,-0.0188,-0.0195,-0.0232,-0.0292,-0.0333,-0.0362,-0.0446,-0.0418,-0.0464,-0.0532,-0.0551,-0.0562,-0.0572,-0.0558,-0.0566,-0.0472,-0.0472,-0.0472,0,-0.0097,-0.012,-0.009,-0.013,-0.0143,-0.0119,-0.0167,-0.019,-0.0218,-0.0237,-0.0228,-0.032,-0.0339,-0.043,-0.0476,-0.0471,-0.0464,-0.0476,-0.0563,-0.0572,-0.0581,-0.0565,-0.0573,-0.0477,-0.0476,-0.0476,-0.0475,0,-0.0172,-0.0185,-0.0196,-0.0248,-0.026,-0.0281,-0.0307,-0.0331,-0.034,-0.0362,-0.0431,-0.0451,-0.0502,-0.0527,-0.0536,-0.0621,-0.0588,-0.0567,-0.0523,-0.0599,-0.0577,-0.0584,-0.0483,-0.0481,-0.048,-0.0479,0,0,-0.0252,-0.0249,-0.0266,-0.0272,-0.0313,-0.032,-0.0403,-0.045,-0.0479,-0.0527,-0.0575,-0.0665,-0.0641,-0.0674,-0.0675,-0.0705,-0.0756,-0.0675,-0.0674,-0.065,-0.0779,-0.0698,-0.0696,-0.0748,-0.075,-0.0752,-0.0733,0,-0.0334,-0.0385,-0.0389,-0.0449,-0.046,-0.0462,-0.0526,-0.0566,-0.0588,-0.0628,-0.066,-0.0703,-0.071,-0.0716,-0.0761,-0.0751,-0.0781,-0.0762,-0.0721,-0.072,-0.0628,-0.0705,-0.0759,-0.0738,-0.074,-0.0741,-0.0741,0,-0.0438,-0.0439,-0.0499,-0.0485,-0.0497,-0.0548,-0.0587,-0.064,-0.0698,-0.071,-0.0762,-0.0765,-0.0834,-0.0807,-0.0859,-0.0846,-0.0836,-0.0824,-0.0822,-0.0729,-0.0652,-0.0652,-0.0753,-0.0752,-0.0751,-0.075,-0.075,0,-0.0477,-0.0516,-0.0542,-0.0552,-0.0565,-0.0597,-0.0616,-0.0669,-0.0689,-0.0752,-0.0752,-0.0832,-0.0834,-0.0875,-0.0864,-0.0867,-0.0885,-0.0871,-0.079,-0.0782,-0.0823,-0.0813,-0.0914,-0.0914,-0.0914,-0.0914,-0.0914,0,-0.0538,-0.0555,-0.0553,-0.0563,-0.0592,-0.0605,-0.0646,-0.0674,-0.071,-0.0721,-0.0782,-0.0784,-0.0852,-0.0862,-0.0878,-0.0848,-0.0895,-0.082,-0.0786,-0.0852,-0.0846,-0.0826,-0.0816,-0.0913,-0.0913,-0.0913,-0.0913,0,-0.055,-0.0569,-0.0575,-0.0588,-0.0603,-0.0616,-0.0637,-0.0646,-0.0686,-0.0699,-0.0714,-0.0752,-0.0758,-0.0797,-0.0823,-0.0823,-0.0822,-0.0794,-0.0846,-0.0811,-0.0704,-0.0699,-0.0723,-0.072,-0.0718,-0.0716,-0.0714,0,-0.0535,-0.0547,-0.0573,-0.0582,-0.0587,-0.0607,-0.0616,-0.0645,-0.0639,-0.066,-0.0649,-0.0664,-0.0686,-0.0658,-0.0716,-0.0738,-0.0731,-0.0732,-0.0762,-0.0728,-0.0692,-0.069,-0.0688,-0.0711,-0.071,-0.0709,-0.0709,0,-0.048,-0.0512,-0.0511,-0.0542,-0.0558,-0.0563,-0.0567,-0.0561,-0.0579,-0.0608,-0.0567,-0.0577,-0.0565,-0.0599,-0.0605,-0.0627,-0.0747,-0.0709,-0.0714,-0.0742,-0.0713,-0.068,-0.068,-0.0701,-0.0702,-0.0703,-0.0703,0,-0.0425,-0.0423,-0.0453,-0.0479,-0.0505,-0.0514,-0.0521,-0.0493,-0.0497,-0.0508,-0.0487,-0.0507,-0.0531,-0.0537,-0.0552,-0.0562,-0.0571,-0.0582,-0.0595,-0.0604,-0.058,-0.0527,-0.0445,0,0,0,0,0,-0.036,-0.0376,-0.0383,-0.0426,-0.0452,-0.0481,-0.0484,-0.0486,-0.0501,-0.0447,-0.0465,-0.0449,-0.0456,-0.0474,-0.0465,-0.053,-0.0593,-0.0521,-0.0618,-0.0657,-0.0666,-0.0653,0,0,0,0,0,0,-0.0326,-0.0333,-0.0362,-0.0382,-0.041,-0.0435,-0.0443,-0.0448,-0.0415,-0.0427,-0.0423,-0.0439,-0.0448,-0.0456,-0.0462,-0.0471,-0.0527,-0.0537,-0.0536,-0.0652,-0.066,-0.0667,-0.0657,0,0,0,0,0]}]]